Location: ????
(55.2778°N, 39.2433°E)
Time: 11:00:26
(UTC+00:00)

SL-16 R/B - Pass Details

Date: 14 April 2024
Orbit: 841 x 845 km, 71.0° (Epoch: 28 May)

Event Time Altitude Azimuth Distance (km) Brightness Sun altitude
Exits shadow 00:35:48 10° 273° (W) 2,505 4.2 -13.8°
Reaches altitude 10° 00:35:55 10° 273° (W) 2,469 4.2 -13.8°
Maximum altitude 00:40:38 26° 330° (NNW) 1,604 3.8 -13.3°
Drops below altitude 10° 00:45:22 10° 26° (NNE) 2,479 5.7 -12.8°
Sets 00:48:15 0° 39° (NE) 3,417 7.1 -12.5°
